Regional Weather Roundup
Issued by NWS

Home | Current Version | Previous Version | Graphics & Text | Print | Product List | Glossary On
Versions: 1 2 3 4 5 6 7 8 9 10 11 12 13 14 15 16 17 18 19 20 21 22 23 24 25 26 27 28 29 30 31 32 33 34 35 36 37 38 39 40 41 42 43 44 45 46 47 48 49 50
000
ASUS43 KTOP 012208
RWRKS

WEATHER ROUNDUP FOR KANSAS
NATIONAL WEATHER SERVICE GOODLAND KS
400 PM CST SUN MAR 01 2015

NOTE:  "FAIR" INDICATES FEW OR NO CLOUDS BELOW 12,000 FEET WITH NO
SIGNIFICANT WEATHER AND/OR OBSTRUCTIONS TO VISIBILITY.

KSZ001>006-013>018-027>032-041>047-012300-
NORTHWEST KANSAS

CITY           SKY/WX    TMP DP  RH WIND       PRES   REMARKS
GOODLAND       PTSUNNY   33  17  51 NE10      30.27R WCI  25
HAYS           MOSUNNY   32  14  47 NW7       30.35S
HILL CITY      PTSUNNY   35  19  52 VRB3      30.33F
RUSSELL        PTSUNNY   35  20  54 NW8       30.34S
$$

KSZ061>065-074>080-084>089-012300-
SOUTHWEST KANSAS

CITY           SKY/WX    TMP DP  RH WIND       PRES   REMARKS
DODGE CITY     CLOUDY    30  21  69 N9        30.32F
ELKHART          N/A     29  20  69 N8          N/A
GARDEN CITY    CLOUDY    29  20  69 N6        30.31S
GREAT BEND     CLOUDY    32  19  59 N8        30.36S
LIBERAL        CLOUDY    28  21  74 NE8       30.32S
PRATT          CLOUDY    32  23  69 N10       30.36S WCI  24
$$

KSZ066>073-081>083-090>101-012300-
SOUTHEAST KANSAS

CITY           SKY/WX    TMP DP  RH WIND       PRES   REMARKS
CHANUTE        MOSUNNY   32  22  66 N8        30.39S
COFFEYVILLE    CLOUDY    33  23  66 N8        30.40S
HUTCHINSON     PTSUNNY   34  21  59 N8        30.37S
MEDICINE LODGE   N/A     33  22  63 N9        30.36F
NEWTON         MOSUNNY   30  19  64 N7        30.39S
PARSONS        CLOUDY    33  24  69 N8        30.40S
WICHITA INTL   MOSUNNY   30  19  63 N10       30.38S WCI  21
WICHITA JABRA  MOSUNNY   31  20  63 N10       30.38R WCI  22
WICHITA MCCONL MOSUNNY   31  21  67 N8        30.38S
WINFIELD       CLOUDY    31  23  72 N10       30.40R WCI  22
$$

KSZ007>012-019>026-033>040-048>060-102>105-012300-
NORTHEAST KANSAS

CITY           SKY/WX    TMP DP  RH WIND       PRES   REMARKS
CONCORDIA      MOSUNNY   36  21  54 N6        30.35F
EMPORIA        PTSUNNY   33  22  63 NW9       30.38R
LAWRENCE       PTSUNNY   34  21  59 N6        30.39S
MANHATTAN      MOSUNNY   34  20  56 N9        30.39S
MARYSVILLE     SUNNY     36  23  60 NW6       30.36S
OLATHE IND     PTSUNNY   32  22  66 N8        30.38S
OLATHE EXE     CLOUDY    32  21  64 NW8       30.36S
SALINA         PTSUNNY   36  20  52 N9        30.39R
TOPEKA BILLARD PTSUNNY   35  21  56 VRB6      30.39F
TOPEKA FORBES  PTSUNNY   33  21  61 NW8       30.38S
$$


USA.gov is the U.S. government's official web portal to all federal, state and local government web resources and services.